View Data : List Evapotranspiration (ETo ) Reports


 
Search Evapotranspiration Reports
Station Fields:
Location:
Date Range:
Start Date:   End Date:
Searched: Report date on 8/17/2018.
Showing 1 - 50 of 130 Records. <Back  Page   Next>
DateTimeStation NumberStation NameGaugeReadingRefill LevelEvap AmtView
8/17/2018  12:00 AM  MN-AA-5  East Bethel 3.1 NE 0.42  0.04   
8/17/2018  5:00 AM  IN-OW-9  Spencer 7.0 S 6.53  0.02   
8/17/2018  5:00 AM  IN-PT-12  Valparaiso 4.3 SW 7.50  0.09   
8/17/2018  5:14 AM  MO-CP-7  Boonville 0.5 ESE 9.88  0.19   
8/17/2018  5:15 AM  NM-SF-70  Santa Fe 10.5 S 5.20  0.26   
8/17/2018  5:15 AM  WI-MC-4  Two Rivers 1.4 N 8.27  0.07   
8/17/2018  5:30 AM  AL-MD-25  Huntsville 4.4 ENE 3.62  0.07   
8/17/2018  5:30 AM  IN-TN-1  Atlanta 4.4 W 4.90  0.00   
8/17/2018  5:45 AM  VA-HV-8  Montpelier 4.8 E 0.48  0.10   
8/17/2018  6:00 AM  CA-SJ-5  Lodi 1.0 NNW 4.10  0.35   
8/17/2018  6:00 AM  CO-LR-623  Fort Collins 6.1 SW 10.35  0.13   
8/17/2018  6:00 AM  MD-MG-54  Germantown 4.6 NNE 0.48  0.13   
8/17/2018  6:00 AM  NH-CS-7  Lancaster 0.5 N 11.05 0.50 0.15   
8/17/2018  6:00 AM  PA-MT-16  North Wales 1.3 WSW 6.75  0.08   
8/17/2018  6:00 AM  TN-MA-3  Jasper 1.7 N 8.30  0.10   
8/17/2018  6:00 AM  TX-ER-4  Stephenville 2.6 NNW 5.85  0.25   
8/17/2018  6:00 AM  WY-LM-59  Burns 6.0 WSW 7.52  0.24   
8/17/2018  6:00 AM  WY-PK-7  Cody 2.4 WSW 0.17  0.00   
8/17/2018  6:30 AM  IL-WN-2  Roscoe 1.6 ESE 3.40  0.07   
8/17/2018  6:30 AM  IA-LN-7  Central City 6.7 W 1.89  0.05   
8/17/2018  6:30 AM  OH-DR-1  Bradford 2.3 NW 2.64  0.04   
8/17/2018  6:30 AM  WY-SH-22  Ranchester 1.3 ESE 3.05  0.35   
8/17/2018  6:44 AM  NJ-MS-21  Randolph Twp 0.8 W 9.47  0.11   
8/17/2018  6:58 AM  TX-KN-118  Boerne 1.6 E 2.88  0.20   
8/17/2018  7:00 AM  AZ-PN-50  Saddlebrooke 1.5 SW 3.22  0.13   
8/17/2018  7:00 AM  CA-HM-5  Mckinleyville 7.3 ESE 3.85  0.05   
8/17/2018  7:00 AM  CA-SD-132  Descanso 3.7N 5.50  0.20   
8/17/2018  7:00 AM  CA-SD-12  Poway 3.2NE 0.63  0.13   
8/17/2018  7:00 AM  CA-SN-100  Glen Ellen 1.9 NNW 2.89  0.15   
8/17/2018  7:00 AM  CA-TH-11  Red Bluff 5.1 NNW 8.12  0.22   
8/17/2018  7:00 AM  CO-BO-57  Nederland 5.8 E 2.51  0.21   
8/17/2018  7:00 AM  CO-EP-24  Black Forest 2.1 SSE 2.89  0.17   
8/17/2018  7:00 AM  CO-EP-188  Colorado Springs 3.7 ENE 4.84  0.20   
8/17/2018  7:00 AM  CO-GF-47  Carbondale 0.5 W 2.12  0.17   
8/17/2018  7:00 AM  CO-GN-18  Crested Butte 6.2 N 9.86  0.08   
8/17/2018  7:00 AM  CO-JF-63  Golden 4.8 NW 5.15  0.19   
8/17/2018  7:00 AM  CO-LR-854  Loveland 2.3 NW 0.54  0.20   
8/17/2018  7:00 AM  CO-LG-6  Sterling 3.7 NNE 4.65  0.25   
8/17/2018  7:00 AM  CO-ME-79  Grand Junction 3.9 WSW 8.05  0.25   
8/17/2018  7:00 AM  FL-MR-66  The Villages 3.7 NNW 2.60  0.16   
8/17/2018  7:00 AM  GA-FY-28  Fayetteville 2.1 NNE 4.54  0.02   
8/17/2018  7:00 AM  IL-CP-1  Homer 2.0 N 3.08  0.09   
8/17/2018  7:00 AM  IL-GY-1  Carbon Hill 3.1 N 4.35  0.13   
8/17/2018  7:00 AM  IL-WF-14  El Paso 5.2 NNW 8.86  0.12   
8/17/2018  7:00 AM  IN-AL-42  Fort Wayne 7.1 WSW 2.90  0.03   
8/17/2018  7:00 AM  IN-AL-5  Huntertown 2.6 ESE 2.53  0.02   
8/17/2018  7:00 AM  IN-BN-53  Zionsville 4.3 NNW 5.51  0.00   
8/17/2018  7:00 AM  IN-HR-5  Milltown 5.7 SSE 5.40  0.03   
8/17/2018  7:00 AM  IN-MR-13  Speedway 6.2 SSW 1.12  0.03   
8/17/2018  7:00 AM  IN-NB-23  Columbia City 8.4 N 0.99 0.91 0.00